User: anonymous   Login
Location: Radomski Observatory
(40.2854°N, 79.5145°W)
Time: 23:32:08
(UTC-05:00)
Language:

Cosmos 1072 Rocket - Orbit

View from above orbital plane
View from above orbital plane
View from above satellite
View from above satellite

Ground track
Ground track

The orbit data is extracted from the following two-line orbital elements,

1 11239U 79003B   17051.88681654 +.00000059 +00000-0 +45566-4 0  9999
2 11239 082.9410 174.8920 0040489 359.6716 116.0290 13.75809614911605
Epoch (UTC): 20 February 2017 21:17:00
Eccentricity: 0.0040489
inclination: 82.9410°
perigee height: 949 km
apogee height: 1008 km
right ascension of ascending node: 174.8920°
argument of perigee: 359.6716°
revolutions per day: 13.75809614
mean anomaly at epoch: 116.0290°
orbit number at epoch: 91160

The dashed part of the orbit path shows where the satellite is in the earth's shadow,  

DLR